Baltimore International Airport Airport (BWI)

 

Airport Diagram
Current Weather/Forecast (MVFR Conditions)
METAR KBWI 171954Z 04007KT 10SM OVC026 07/M01 A3012 RMK AO2 SLP200 T00721006
TAF KBWI 171742Z 1718/1824 05010KT P6SM OVC025 FM172100 03009KT P6SM OVC035 FM180400 01008KT P6SM OVC015 FM181600 33006KT P6SM OVC020 FM181800 33005KT P6SM OVC035

All Charts
General
Chart Name Download
AIRPORT DIAGRAM
TAKEOFF MINIMUMS
ALTERNATE MINIMUMS

Departures
Chart Name Download
CONLE THREE (RNAV)
CONLE THREE (RNAV), CONT.1
FIXET TWO (RNAV)
FIXET TWO (RNAV), CONT.1
PALEO THREE
SWANN THREE
TERPZ SIX (RNAV)
TERPZ SIX (RNAV), CONT.1

Arrivals
Chart Name Download
ANTHM THREE (RNAV)
ANTHM THREE (RNAV), CONT.1
ANTHM THREE (RNAV), CONT.2
MIIDY TWO (RNAV)
RAVNN SIX (RNAV)
RAVNN SIX (RNAV), CONT.1
RIPKN TWO
RIPKN TWO, CONT.1
TRISH THREE (RNAV)
TRISH THREE (RNAV), CONT.1
WESTMINSTER SIX

Approaches
Chart Name Download
ILS OR LOC RWY 10
ILS OR LOC RWY 15L
ILS OR LOC RWY 28
ILS OR LOC RWY 33L
ILS OR LOC RWY 33R
ILS OR LOC RWY 15R
ILS RWY 10 (SA CAT I)
ILS RWY 33L (SA CAT I - II)
ILS RWY 10 (CAT II - III)
RNAV (RNP) Z RWY 10
RNAV (RNP) Z RWY 15R
RNAV (RNP) Z RWY 28
RNAV (RNP) Z RWY 33L
RNAV (GPS) RWY 15L
RNAV (GPS) RWY 33R
RNAV (GPS) Y RWY 10
RNAV (GPS) Y RWY 15R
RNAV (GPS) Y RWY 28
RNAV (GPS) Y RWY 33L
INTERSTATE VISUAL RWY 33L


Inbound Traffic (Arrivals)

No inbound traffic.


Outbound Traffic (Departures)

No outbound traffic.